Regional Weather Roundup
Issued by NWS Sterling, VA

Home | Current Version | Previous Version | Text Only | Print | Product List | Glossary On
Versions: 1 2 3 4 5 6 7 8 9 10 11 12 13 14 15 16 17 18 19 20 21 22 23 24 25 26 27 28 29 30 31 32 33 34 35 36 37 38 39 40 41 42 43 44 45 46 47 48 49 50
000
ASUS41 KLWX 272211
RWRLWX

REGIONAL WEATHER ROUNDUP
NATIONAL WEATHER SERVICE BALTIMORE MD/WASHINGTON DC
600 PM EDT FRI MAR 27 2015

Note: "FAIR" indicates few or no clouds below 12,000 feet
with no significant weather and/or obstructions to visibility.
 TC=TEMPERATURE CELSIUS

 * =Non NWS site. Station does not report precipitation (e.g. rain,
    snow, etc.), thunder, or fog.

DCZ001-MDZ009-015-VAZ040>042-051-053>054-272300-
WASHINGTON METRO

CITY           SKY/WX    TMP DP  RH WIND       PRES   REMARKS
WASHINGTON NAT PTSUNNY   51  28  41 NW12G17   29.76F
DULLES         CLOUDY    47  27  45 N8        29.76S
ANDREWS AFB    PTSUNNY   47  30  51 N8        29.75S
FT BELVOIR     PTSUNNY   49  27  42 N6        29.77R
QUANTICO       PTSUNNY   50  29  44 NE10      29.78S
COLLEGE PARK*  MOSUNNY   50  28  43 N5        29.75F
LEESBURG*      MOSUNNY   46  30  53 N12       29.77F
MANASSAS*      CLOUDY    48  30  49 N10       29.77S
GAITHERSBURG*  MOSUNNY   46  25  42 N6        29.79S

$$

MDZ006>007-011-014-272300-
BALTIMORE METRO

CITY           SKY/WX    TMP DP  RH WIND       PRES   REMARKS
BWI AIRPORT    PTSUNNY   49  26  41 NW7G18    29.75S
MD SCIENCE CTR   N/A     49  25  39 MISG      29.75F
MARTIN STATE   MOSUNNY   48  30  49 W6        29.78R
ANNAPOLIS      CLOUDY    43  36  76 SE7       29.76S

$$

MDZ012-015-019>023-272300-
MARYLAND EASTERN SHORE

CITY           SKY/WX    TMP DP  RH WIND       PRES   REMARKS
OCEAN CITY     LGT RAIN  38  36  92 NW7       29.78R
SALISBURY      LGT RAIN  39  36  89 N3        29.78R
BAY BRIDGE AP*   N/A     43  36  75 CALM      29.77S
CAMBRIDGE*     CLOUDY    43  37  81 CALM      29.76F
EASTON*        MOSUNNY   45  41  87 CALM      29.80R

$$

MDZ017>025-272300-
SOUTHERN MARYLAND

CITY           SKY/WX    TMP DP  RH WIND       PRES   REMARKS
PATUXENT RIVER CLOUDY    41  36  82 W3        29.78S
ST INIGOES     CLOUDY    41  35  79 CALM      29.78R
LEONARDTOWN*   CLOUDY    41  36  81 CALM      29.79R

$$

MDZ003>005-272300-
NORTH CENTRAL MARYLAND

CITY           SKY/WX    TMP DP  RH WIND       PRES   REMARKS
FREDERICK*     NOT AVBL
HAGERSTOWN APT CLOUDY    45  24  43 NW12      29.77R
WESTMINSTER*   PTSUNNY   45  23  42 NW8       29.76R

$$

MDZ501>502-272300-
WESTERN MARYLAND

CITY           SKY/WX    TMP DP  RH WIND       PRES   REMARKS
OAKLAND*       CLOUDY    28 N/A N/A NW7       29.74S HAZE
CUMBERLAND*    CLOUDY    43  23  45 NW8G17    29.85R

$$

VAZ025>031-272300-
SHENANDOAH VALLEY

CITY           SKY/WX    TMP DP  RH WIND       PRES   REMARKS
WINCHESTER*    CLOUDY    45  21  39 NW9G20    29.78R
FRONT ROYAL*   CLOUDY    45  28  53 N12       29.76R
LURAY*         CLOUDY    50  30  46 NW10G16   29.74S
NEW MARKET*    FAIR      46  26  45 N9G16     29.74S
STAUNTON*      CLOUDY    47  28  46 NE7       29.75R
WAYNESBORO*    CLOUDY    45  29  54 NE5       29.73R

$$

WVZ021-048>050-054>055-272300-
EASTERN WEST VIRGINIA PANHANDLE

CITY           SKY/WX    TMP DP  RH WIND       PRES   REMARKS
MARTINSBURG    CLOUDY    47  24  40 NW10      29.78R
PETERSBURG*    CLOUDY    42  22  45 NW10      29.82R

$$

VAZ036>039-050-272300-
CENTRAL FOOTHILLS

CITY           SKY/WX    TMP DP  RH WIND       PRES   REMARKS
CHARLOTTESVILL PTSUNNY   47  35  63 E6        29.74F
CULPEPER*      CLOUDY    48  32  53 N7        29.77S
ORANGE*        PTSUNNY   48  32  53 N3        29.76F
GORDONSVILLE*  MOCLDY    46  33  60 CALM      29.75S
WARRENTON*     FAIR      49  36  60 N12       29.76S

$$

VAZ055>057-272300-
NORTH AND CENTRAL PIEDMONT

CITY           SKY/WX    TMP DP  RH WIND       PRES   REMARKS
FREDERICKSBRG* PTSUNNY   49  31  50 N9        29.76S
STAFFORD*      CLOUDY    47  30  50 N7        29.80S

$$

NCZ024-NYZ072-PAZ021-071-VAZ022-071-272300-
OTHER REGIONAL OBSERVATIONS

CITY           SKY/WX    TMP DP  RH WIND       PRES   REMARKS
NEW YORK CITY  CLOUDY    45  28  51 VRB6      29.75R
PHILADELPHIA   CLOUDY    47  26  44 N8        29.75R
PITTSBURGH     FLURRIES  30  21  69 NW16      29.88R WCI  19
ROANOKE        CLOUDY    49  25  39 NW6       29.76R
RICHMOND       LGT RAIN  43  36  76 E3        29.79R
RALEIGH        CLOUDY    44  40  85 NE6       29.78S

$$

ANZ530>537-272300-
MARINE OBSERVATIONS

STATION/POSITION TIME  TEMP    WIND        PRES
                       AIR SEA DIR/SP/G
                 (UTC) (F)     (DEG/KT/KT) (MB)
THOMAS PT LIGHT  2200                        N/A
BALT KEY BRIDGE  2100   46     310/  8/  9 1007.4F
COVE POINT       2100   38     310/  2/  3 1008.1R
LEWISETTA        2100   40 48              1008.0R
SOLOMONS ISLAND  2106      44                N/A
PINEY POINT      2106           CALM  /  1   N/A

$$



USA.gov is the U.S. government's official web portal to all federal, state and local government web resources and services.